CAPE
0 0 0 0 1 0 1 1 2 2 1 0 0 0 0 0 0 0 0 0 0 0 0 0 0 0 0 0 0 0 0 0 0 0 0 0 0 0 0 0 0 0 0 0 0 0 0
0 0 0 0 0 0 0 0 1 1 0 0 0 0 0 0 0 0 0 0 0 0 0 0 0 0 0 0 0 0 0 0 0 0 0 0 0 0 0 0 0 0 0 0 0 0 0
0 0 0 0 0 0 0 1 0 1 0 0 0 0 0 0 0 0 0 0 0 0 0 0 0 0 0 0 0 0 0 0 0 0 0 0 0 0 0 0 0 0 0 0 0 0 0
0 0 0 0 0 0 0 0 0 1 1 0 0 0 0 0 0 0 0 0 0 0 0 0 0 0 0 0 0 0 0 0 0 0 0 0 0 0 0 0 0 0 0 0 0 0 0
4 0 0 0 0 0 0 0 0 0 0 0 0 0 0 0 0 0 0 0 0 0 0 0 0 0 0 0 0 0 0 0 0 0 0 0 0 0 0 0 0 0 0 0 0 0 0
5 3 0 0 0 0 0 0 0 0 0 0 0 0 0 0 0 0 0 0 0 0 0 0 0 0 0 0 0 0 0 0 0 0 0 0 0 0 0 0 0 0 0 0 0 0 0
6 7 0 0 0 0 0 0 0 0 0 0 0 0 0 0 0 0 0 0 0 0 0 0 0 0 0 0 0 0 0 0 0 0 0 0 0 0 0 0 0 0 0 0 0 0 0
4 9 9 0 0 0 0 0 0 0 0 0 0 0 0 0 0 0 0 0 0 0 0 0 0 0 0 0 0 0 0 0 0 0 0 0 0 0 0 0 0 0 0 0 0 0 0
3 1 15 2 0 0 0 0 0 0 0 0 0 0 0 0 0 0 0 0 0 0 0 0 0 0 0 0 0 0 0 0 0 0 0 0 0 0 0 0 0 0 0 0 0 0 0
0 11 13 3 0 0 0 0 0 0 0 0 0 0 0 0 0 0 0 0 0 0 0 0 0 0 0 0 0 0 0 0 0 0 0 0 0 0 0 0 0 0 0 0 0 0 0
0 0 9 1 3 7 0 0 0 0 0 0 0 0 0 0 0 0 0 0 0 0 0 0 0 0 0 0 0 0 0 0 0 0 0 0 0 0 0 0 0 0 0 0 0 0 0
0 0 0 0 0 0 0 0 0 0 0 0 0 0 0 0 0 0 0 0 0 0 0 0 0 0 0 0 0 0 0 0 0 0 0 0 0 0 0 0 0 0 0 0 0 0 0
3 2 0 0 0 0 0 0 0 0 0 0 0 0 0 0 0 0 0 0 0 0 0 0 0 0 0 0 0 0 0 0 0 0 0 0 0 0 0 0 0 0 0 0 0 0 0
2 3 2 2 0 0 0 0 0 0 0 0 0 0 0 0 0 0 0 0 0 0 0 0 0 0 0 0 0 0 0 0 0 0 0 0 0 0 0 0 0 0 0 0 0 0 0
12 3 1 1 3 1 0 0 0 0 0 0 0 0 0 0 0 0 0 0 0 0 0 0 0 0 0 0 0 0 0 0 0 0 0 0 0 0 0 0 0 0 0 0 0 0 0
6 9 2 1 2 3 3 0 0 0 0 0 0 0 0 0 0 0 0 0 0 0 0 0 0 0 0 0 0 0 0 0 0 0 0 0 0 0 0 0 0 0 0 0 0 0 0
0 2 6 5 1 1 1 2 1 0 0 0 0 0 0 0 0 0 0 0 0 0 0 0 0 0 0 0 0 0 0 0 0 0 0 0 0 0 0 0 0 0 0 0 0 0 0
10 5 1 20 3 1 1 1 3 0 0 0 0 0 0 0 0 0 0 0 0 0 0 0 0 0 0 0 0 0 0 0 0 0 0 0 0 0 0 0 0 0 0 0 0 0 0
15 1 0 1 3 1 1 1 5 2 0 0 0 0 0 0 0 0 0 0 0 0 0 0 0 0 0 0 0 0 0 0 0 0 0 0 0 0 0 0 0 0 0 0 0 0 0
3 0 0 0 0 6 2 1 4 5 0 0 0 0 0 0 0 0 0 0 0 0 0 0 0 0 0 0 0 0 0 0 0 0 0 0 0 0 0 0 0 0 0 0 0 0 0
0 0 0 0 0 0 9 1 4 6 0 0 0 0 0 0 0 0 0 0 0 0 0 0 0 0 0 0 0 0 0 0 0 0 0 0 0 0 0 0 0 0 0 0 0 0 0
0 0 0 0 0 0 19 10 5 7 1 0 0 0 0 0 0 0 0 0 0 0 0 0 0 0 0 0 0 0 0 0 0 0 0 0 0 0 0 0 0 0 0 0 0 0 0
7 0 0 0 0 0 0 1 7 5 0 0 0 0 0 0 0 0 0 0 0 0 0 0 0 0 0 0 0 0 0 0 0 0 0 0 0 0 0 0 0 0 0 0 0 0 0
40 11 0 0 0 0 0 11 5 4 0 0 0 0 0 0 0 0 0 0 0 0 0 0 0 0 0 0 0 0 0 0 0 0 0 0 0 0 0 0 0 0 0 0 0 0 0
28 34 11 4 0 0 0 1 6 3 2 0 0 0 0 0 0 0 0 0 0 0 0 0 0 0 0 0 0 0 0 0 0 0 0 0 0 0 0 0 0 0 0 0 0 0 0
15 27 16 38 21 0 0 11 49 8 6 0 0 0 0 0 0 0 0 0 0 0 0 0 0 0 0 0 0 0 0 0 0 0 0 0 0 0 0 0 0 0 0 0 0 0 0
22 21 19 37 23 0 0 0 21 36 11 0 0 0 0 0 0 0 0 0 1 0 0 0 0 0 0 0 0 0 0 0 0 0 0 0 0 0 0 0 0 0 0 0 0 0 0
19 22 26 1 0 0 0 0 0 47 8 0 1 0 0 0 0 0 0 0 0 0 0 0 0 0 0 0 0 0 0 0 0 0 0 0 0 0 0 0 0 0 0 0 0 0 0
15 4 5 0 0 1 5 0 12 8 2 0 0 0 0 0 0 0 0 0 0 1 0 0 0 0 0 0 0 0 0 0 0 0 0 0 0 0 0 0 0 0 0 0 0 0 0
CIN
0 0 0 0 0 0 0 0 0 0 0 0 0 0 0 0 0 0 0 0 0 0 0 0 0 0 0 0 0 0 0 0 0 0 0 0 0 0 0 0 0 0 0 0 0 0 0
0 0 0 0 0 0 0 0 0 0 0 0 0 0 0 0 0 0 0 0 0 0 0 0 0 0 0 0 0 0 0 0 0 0 0 0 0 0 0 0 0 0 0 0 0 0 0
0 0 0 0 0 0 0 0 0 0 0 0 0 0 0 0 0 0 0 0 0 0 0 0 0 0 0 0 0 0 0 0 0 0 0 0 0 0 0 0 0 0 0 0 0 0 0
0 0 0 0 0 0 0 0 0 0 0 0 0 0 0 0 0 0 0 0 0 0 0 0 0 0 0 0 0 0 0 0 0 0 0 0 0 0 0 0 0 0 0 0 0 0 0
-4 0 0 0 0 0 0 0 0 0 0 0 0 0 0 0 0 0 0 0 0 0 0 0 0 0 0 0 0 0 0 0 0 0 0 0 0 0 0 0 0 0 0 0 0 0 0
0 -3 0 0 0 0 0 0 0 0 0 0 0 0 0 0 0 0 0 0 0 0 0 0 0 0 0 0 0 0 0 0 0 0 0 0 0 0 0 0 0 0 0 0 0 0 0
-1 0 0 0 0 0 0 0 0 0 0 0 0 0 0 0 0 0 0 0 0 0 0 0 0 0 0 0 0 0 0 0 0 0 0 0 0 0 0 0 0 0 0 0 0 0 0
0 -1 -1 0 0 0 0 0 0 0 0 0 0 0 0 0 0 0 0 0 0 0 0 0 0 0 0 0 0 0 0 0 0 0 0 0 0 0 0 0 0 0 0 0 0 0 0
0 0 0 -2 0 0 0 0 0 0 0 0 0 0 0 0 0 0 0 0 0 0 0 0 0 0 0 0 0 0 0 0 0 0 0 0 0 0 0 0 0 0 0 0 0 0 0
0 0 0 -1 0 0 0 0 0 0 0 0 0 0 0 0 0 0 0 0 0 0 0 0 0 0 0 0 0 0 0 0 0 0 0 0 0 0 0 0 0 0 0 0 0 0 0
0 0 0 0 0 0 0 0 0 0 0 0 0 0 0 0 0 0 0 0 0 0 0 0 0 0 0 0 0 0 0 0 0 0 0 0 0 0 0 0 0 0 0 0 0 0 0
0 0 0 0 0 0 0 0 0 0 0 0 0 0 0 0 0 0 0 0 0 0 0 0 0 0 0 0 0 0 0 0 0 0 0 0 0 0 0 0 0 0 0 0 0 0 0
0 0 0 0 0 0 0 0 0 0 0 0 0 0 0 0 0 0 0 0 0 0 0 0 0 0 0 0 0 0 0 0 0 0 0 0 0 0 0 0 0 0 0 0 0 0 0
-1 0 0 0 0 0 0 0 0 0 0 0 0 0 0 0 0 0 0 0 0 0 0 0 0 0 0 0 0 0 0 0 0 0 0 0 0 0 0 0 0 0 0 0 0 0 0
-10 -12 0 0 0 0 0 0 0 0 0 0 0 0 0 0 0 0 0 0 0 0 0 0 0 0 0 0 0 0 0 0 0 0 0 0 0 0 0 0 0 0 0 0 0 0 0
0 -14 -6 0 0 0 0 0 0 0 0 0 0 0 0 0 0 0 0 0 0 0 0 0 0 0 0 0 0 0 0 0 0 0 0 0 0 0 0 0 0 0 0 0 0 0 0
0 0 -12 -9 0 0 0 0 0 0 0 0 0 0 0 0 0 0 0 0 0 0 0 0 0 0 0 0 0 0 0 0 0 0 0 0 0 0 0 0 0 0 0 0 0 0 0
-90 0 -3 -4 -6 0 0 0 0 0 0 0 0 0 0 0 0 0 0 0 0 0 0 0 0 0 0 0 0 0 0 0 0 0 0 0 0 0 0 0 0 0 0 0 0 0 0
-96 -3 0 -36 -42 0 0 0 0 0 0 0 0 0 0 0 0 0 0 0 0 0 0 0 0 0 0 0 0 0 0 0 0 0 0 0 0 0 0 0 0 0 0 0 0 0 0
0 0 0 0 0 -54 -13 0 0 0 0 0 0 0 0 0 0 0 0 0 0 0 0 0 0 0 0 0 0 0 0 0 0 0 0 0 0 0 0 0 0 0 0 0 0 0 0
0 0 0 0 0 0 -30 0 0 0 0 0 0 0 0 0 0 0 0 0 0 0 0 0 0 0 0 0 0 0 0 0 0 0 0 0 0 0 0 0 0 0 0 0 0 0 0
0 0 0 0 0 0 -16 -50 0 0 0 0 0 0 0 0 0 0 0 0 0 0 0 0 0 0 0 0 0 0 0 0 0 0 0 0 0 0 0 0 0 0 0 0 0 0 0
-3 0 0 0 0 0 0 -1 0 0 0 0 0 0 0 0 0 0 0 0 0 0 0 0 0 0 0 0 0 0 0 0 0 0 0 0 0 0 0 0 0 0 0 0 0 0 0
0 -2 0 0 0 0 0 0 0 0 0 0 0 0 0 0 0 0 0 0 0 0 0 0 0 0 0 0 0 0 0 0 0 0 0 0 0 0 0 0 0 0 0 0 0 0 0
-1 0 -1 0 0 0 0 0 -9 0 0 0 0 0 0 0 0 0 0 0 0 0 0 0 0 0 0 0 0 0 0 0 0 0 0 0 0 0 0 0 0 0 0 0 0 0 0
-9 -8 -2 0 0 0 0 0 0 0 0 0 0 0 0 0 0 0 0 0 0 0 0 0 0 0 0 0 0 0 0 0 0 0 0 0 0 0 0 0 0 0 0 0 0 0 0
-5 -4 -1 0 0 0 0 0 -1 0 0 0 0 0 0 0 0 0 0 0 0 0 0 0 0 0 0 0 0 0 0 0 0 0 0 0 0 0 0 0 0 0 0 0 0 0 0
0 0 0 0 0 0 0 0 -1 0 0 0 0 0 0 0 0 0 0 0 0 0 0 0 0 0 0 0 0 0 0 0 0 0 0 0 0 0 0 0 0 0 0 0 0 0 0
0 -6 -6 0 0 0 0 0 0 -17 0 0 0 0 0 0 0 0 0 0 0 0 0 0 0 0 0 0 0 0 0 0 0 0 0 0 0 0 0 0 0 0 0 0 0 0 0
Wind_Speed
7 7 8 9 10 10 11 11 11 11 11 12 12 12 13 13 12 11 11 10 8 6 6 7 8 8 1 5 1 5 9 11 7 7 4 4 5 3 3 4 4 5 2 7 6 12 8
8 8 9 9 10 11 11 12 12 12 11 12 12 13 13 13 13 13 12 11 9 6 6 6 6 7 2 2 3 6 6 5 7 5 5 6 3 1 3 4 4 4 7 6 4 5 5
5 8 9 10 11 11 12 13 12 12 12 12 12 12 12 13 14 14 13 11 9 7 5 6 6 2 6 2 4 7 6 2 3 3 2 3 4 4 2 3 2 8 6 3 3 4 4
2 6 9 10 11 11 11 12 13 13 13 13 13 13 13 12 13 13 12 11 8 7 7 6 5 1 2 2 2 4 7 2 4 2 1 4 4 3 4 2 4 2 5 2 4 8 4
3 4 6 9 11 12 12 12 13 13 13 14 14 14 14 14 13 12 11 10 7 8 7 7 2 3 1 0 1 3 2 2 6 1 2 3 2 3 3 5 4 1 3 5 3 8 6
9 6 5 6 9 11 12 13 13 14 14 14 14 14 13 14 15 13 11 5 6 7 1 2 2 4 1 1 2 4 3 3 1 3 3 2 4 3 3 4 4 4 3 3 5 7 5
10 8 6 6 7 10 11 12 13 14 15 15 16 15 16 15 13 11 7 3 5 5 8 2 1 2 2 1 2 1 3 5 1 2 2 1 5 4 5 5 4 2 1 2 1 5 6
9 10 8 8 7 8 9 11 12 14 15 15 16 17 16 16 16 10 1 5 3 2 1 1 0 3 1 1 1 4 7 0 2 2 2 6 2 2 3 3 3 2 1 4 2 1 2
10 11 10 10 9 7 7 9 11 13 14 15 16 17 17 17 15 5 4 3 1 2 2 1 0 2 1 1 1 3 4 2 1 4 4 4 3 2 1 2 2 1 2 2 1 2 4
10 11 11 10 11 9 7 7 8 10 12 14 16 17 17 18 3 2 2 1 2 0 4 3 2 1 0 1 1 1 1 1 0 3 2 2 1 1 1 0 2 1 2 1 2 4 3
12 13 12 12 10 10 9 7 7 8 11 12 14 16 15 9 3 3 0 1 2 3 4 3 3 0 2 2 3 2 1 0 3 3 4 3 2 1 1 1 2 3 1 1 1 1 2
14 14 13 13 12 10 9 9 7 7 9 11 13 14 15 3 2 1 3 4 3 7 8 4 4 4 2 2 2 2 1 1 0 2 3 2 1 2 3 1 2 3 0 3 3 3 2
16 15 14 14 13 12 10 9 8 6 6 9 12 13 8 2 2 2 2 3 6 5 1 4 5 4 3 5 3 4 3 1 4 5 3 2 2 1 2 3 3 2 5 3 5 2 7
15 16 15 15 14 13 12 10 8 7 6 8 10 10 4 1 1 2 3 5 3 4 6 2 3 3 5 5 2 3 3 2 2 2 3 5 6 6 1 1 6 4 5 6 6 4 5
14 17 16 16 15 14 13 11 9 6 4 7 10 1 1 3 2 3 5 3 8 5 4 8 3 3 3 2 2 3 5 5 3 2 7 5 4 2 4 3 1 3 4 2 0 2 1
12 12 16 17 18 16 15 12 10 6 1 6 2 2 3 4 4 4 4 6 4 1 1 4 6 5 6 5 4 5 6 1 4 3 3 1 1 1 1 2 1 1 1 3 2 3 6
10 13 15 17 17 17 16 14 11 6 1 4 2 1 2 4 3 4 5 8 2 2 2 3 3 4 4 6 7 4 3 3 2 2 3 1 3 1 2 4 6 2 2 1 3 5 5
8 9 14 13 15 15 16 15 13 10 5 4 2 3 2 3 3 3 5 4 3 4 1 1 1 1 2 5 4 3 5 1 1 6 5 2 4 4 8 1 0 1 6 6 6 5 5
8 9 8 10 8 9 12 15 16 15 11 4 1 4 1 1 4 4 2 2 2 4 5 5 4 2 1 5 3 4 4 2 1 2 5 4 2 1 3 1 2 4 4 4 5 4 7
8 8 8 5 7 8 11 13 19 19 16 5 3 2 3 1 3 4 6 5 6 1 2 2 4 3 3 3 1 5 4 2 1 2 3 1 3 7 8 3 6 5 5 6 7 4 5
9 8 6 5 5 9 9 16 22 21 19 4 3 4 3 3 6 5 6 7 6 6 2 4 1 5 7 6 4 5 4 2 1 2 1 4 5 3 4 5 3 7 7 8 10 9 10
9 7 5 5 6 6 4 14 21 23 20 3 6 3 2 4 5 10 6 6 10 5 9 6 5 9 7 6 7 8 8 6 6 3 5 1 3 0 4 6 1 5 10 11 14 5 7
10 8 6 4 5 6 3 16 21 24 9 3 1 2 1 3 5 3 3 6 9 9 2 2 8 5 7 4 5 5 4 5 7 9 8 6 4 3 5 3 6 9 13 7 3 3 4
10 9 8 7 4 5 7 11 25 27 6 4 3 3 4 3 3 6 5 2 4 3 6 2 2 6 4 7 7 6 8 7 7 6 3 6 5 3 3 2 4 4 1 3 4 1 1
7 11 11 9 6 5 5 4 23 28 15 4 3 4 3 3 1 2 2 2 6 4 4 3 3 3 6 4 4 3 4 3 2 4 4 2 4 2 3 4 7 2 4 6 6 5 4
12 10 12 12 8 7 4 6 15 26 19 4 2 1 2 4 5 3 3 2 2 3 3 3 3 4 5 2 3 6 6 4 4 1 3 3 4 4 3 3 7 5 2 3 4 5 5
11 11 14 12 9 8 7 6 6 24 19 4 2 1 3 3 3 2 3 3 5 3 3 3 2 3 3 2 2 4 5 3 5 6 5 3 2 7 4 4 9 4 5 3 7 8 6
12 12 11 11 12 12 10 9 9 22 21 5 3 2 1 3 2 2 3 3 2 3 5 4 4 2 2 3 4 4 4 5 3 5 7 7 8 4 3 2 10 7 5 6 5 3 6
9 12 13 13 14 13 10 9 10 24 17 7 3 3 3 6 4 2 3 3 2 4 3 4 1 4 5 4 2 2 1 2 3 4 1 4 5 5 7 4 1 4 2 3 4 6 5
Wind_Direction
13 8 12 11 8 9 7 8 1 3 358 357 358 358 359 354 345 341 339 333 330 338 339 340 337 350 355 55 84 316 335 333 345 345 10 352 29 23 75 92 52 87 122 55 95 81 71
4 359 360 0 2 2 0 4 2 354 355 357 356 358 356 349 343 340 338 332 326 324 323 321 334 328 28 97 271 321 319 345 355 20 16 28 27 16 82 66 75 106 98 117 71 75 94
359 349 348 352 356 357 357 357 357 352 349 353 351 355 353 350 343 339 336 330 322 309 303 313 339 320 63 167 314 319 337 266 341 16 46 1 342 49 22 79 36 131 97 108 146 163 133
348 342 341 341 344 347 350 353 352 351 347 346 347 349 346 349 340 334 329 323 309 297 303 314 333 18 88 227 315 347 350 43 3 26 47 295 346 72 69 97 53 101 90 140 197 162 180
289 317 328 333 333 338 343 348 348 346 345 345 344 346 342 342 335 328 321 311 290 300 293 299 11 111 17 49 10 317 349 338 303 284 316 295 33 105 54 95 37 330 207 192 165 188 144
266 267 297 316 323 330 337 343 344 343 342 344 341 338 337 336 330 325 314 280 293 329 245 268 283 51 263 170 332 317 323 292 343 341 14 51 53 80 37 86 192 219 229 244 192 196 164
262 263 263 287 309 320 328 336 338 340 341 342 339 337 334 333 325 328 343 8 25 3 36 79 357 119 79 41 72 34 335 348 286 37 126 344 81 180 233 186 184 171 236 278 228 177 139
259 255 257 265 277 299 317 327 335 337 339 340 338 335 333 331 326 317 252 79 129 161 52 280 182 86 70 64 131 350 15 81 155 167 115 28 165 216 144 114 109 67 278 277 54 61 138
252 255 256 261 264 273 297 317 329 334 337 338 336 334 332 332 329 351 76 103 327 5 123 209 157 100 176 39 55 322 3 331 166 152 169 154 201 200 191 141 139 212 219 318 161 195 258
235 252 252 246 262 267 273 296 314 325 334 336 335 334 331 327 15 295 57 101 341 329 69 219 228 241 155 3 245 291 357 165 6 143 102 108 222 184 138 226 128 223 348 15 30 67 240
227 236 242 240 240 258 267 271 297 318 329 335 333 332 329 346 284 54 327 303 306 53 15 150 181 102 158 174 146 239 234 116 124 144 104 239 135 122 178 297 335 193 58 89 65 143 33
228 230 233 237 235 236 251 269 279 307 325 328 329 333 333 33 50 291 334 346 53 47 261 175 150 184 144 190 201 147 282 41 130 86 87 128 197 88 144 97 77 173 311 39 53 86 321
228 226 228 223 228 228 230 247 269 282 309 323 331 331 330 314 240 235 23 41 47 142 322 199 198 176 215 177 174 183 178 166 164 99 215 135 176 157 151 132 2 73 60 340 345 349 233
234 225 223 226 218 221 221 226 247 274 307 324 324 325 288 135 218 83 67 50 204 226 200 138 132 146 186 152 184 173 156 201 280 105 125 165 301 170 197 178 172 176 159 162 255 227 271
239 238 229 224 223 213 217 216 226 242 296 326 323 292 238 223 181 81 85 102 212 221 142 147 65 167 223 195 191 160 203 198 160 162 175 159 268 52 42 10 87 203 174 173 206 287 344
319 271 240 232 224 213 209 209 214 213 276 356 14 317 230 178 128 79 87 230 227 157 92 127 201 167 185 195 164 178 188 161 152 54 49 112 242 39 319 2 343 132 205 77 12 270 267
309 314 302 240 228 216 202 199 195 180 180 52 32 349 242 137 81 64 187 226 188 63 64 170 221 181 176 171 178 210 197 15 58 92 58 41 117 325 53 205 186 107 248 128 130 164 205
298 311 326 263 235 217 205 188 175 147 99 29 328 255 213 108 108 198 188 201 156 160 84 211 202 112 125 158 172 229 197 187 339 159 158 177 142 203 219 190 286 169 190 156 150 235 231
280 291 318 337 234 227 214 180 164 143 126 101 108 289 304 194 188 225 241 159 176 149 186 182 175 164 184 175 191 160 146 264 31 145 170 182 211 4 291 329 330 212 206 179 117 97 211
279 293 305 329 354 273 243 172 155 145 133 96 122 244 284 210 272 191 167 203 184 128 154 139 146 117 132 202 223 171 146 193 64 38 101 23 219 199 200 183 138 190 205 201 157 161 225
270 274 289 318 313 314 230 180 157 151 144 106 137 221 238 218 259 226 177 164 148 183 233 179 166 205 171 187 186 198 115 115 3 157 155 143 225 241 259 241 196 210 199 213 208 222 210
268 277 296 296 282 330 262 173 163 151 138 98 145 178 328 290 296 199 173 220 183 158 153 217 201 190 191 180 193 196 141 172 191 160 169 164 258 36 276 266 266 241 231 229 240 234 248
248 255 264 295 288 260 300 175 165 158 136 115 124 76 107 296 337 335 235 207 202 137 254 150 189 135 178 182 115 113 71 74 149 152 178 162 172 116 262 324 339 289 234 217 146 75 159
234 242 252 259 286 293 256 211 169 174 162 115 163 142 129 257 202 209 295 149 157 240 152 153 64 140 163 123 97 60 53 61 84 50 94 161 147 145 262 338 245 252 121 142 128 212 132
289 257 259 260 260 261 275 253 187 178 173 109 172 138 152 234 204 246 267 104 96 60 55 68 24 344 141 86 86 78 6 14 91 49 32 54 142 180 195 220 319 302 216 179 158 259 198
277 267 288 255 255 252 254 236 199 189 172 106 134 76 167 133 218 79 126 153 155 73 38 32 339 2 71 111 141 179 207 200 215 237 3 87 75 137 120 202 246 235 185 113 105 290 208
265 267 276 254 265 264 271 245 240 192 175 103 115 225 122 145 124 158 178 189 140 145 132 136 176 47 16 135 148 188 221 146 187 181 170 137 131 204 214 227 286 210 149 147 89 240 165
261 265 256 257 262 262 261 241 254 187 158 103 78 357 108 103 86 357 89 168 148 158 151 154 86 313 52 178 182 231 193 199 157 151 174 168 155 196 116 166 273 145 78 178 204 104 147
267 271 267 264 262 246 237 217 201 147 140 110 99 55 31 63 94 67 132 142 11 345 130 187 172 153 176 179 211 123 139 114 136 224 259 207 182 180 188 220 306 144 134 126 141 142 162